{"data":{"norad_id":68652,"epoch":"2026-09-19T22:13:58.660032Z","epoch_age_seconds":112711,"freshness":"FRESH","line1":"1 68652U 26075S   26262.92637338  .00000035  00000+0  35388-4 0  9994","line2":"2 68652  88.9863 311.3230 0002254  97.6273 262.5134 13.51023932 22603","mean_motion":13.51023932,"eccentricity":0.0002254,"inclination_deg":88.9863,"raan_deg":311.323,"arg_perigee_deg":97.6273,"mean_anomaly_deg":262.5134,"bstar":3.5388e-5,"rev_number":2260,"period_min":106.58582471358,"perigee_km":1066.8151737957,"apogee_km":1070.1721148901,"semimajor_km":7446.6306443429,"source":"CELESTRAK","updated_at":"2026-09-20T09:00:24.372598Z"}}